sat.trackr.live / text

‹ back to catalog

STARLINK-2592

NORAD 48408 · 2021-038BH

PAYLOAD ACTIVE UNKNOWN

§ Identity

Operator
Country
US
Launch date
2021-05-04
Launch site
AFETR
Launch vehicle
Mass (kg)
RCS (m²)

Purposes: comms

External: N2YO · Heavens-Above · Gunter

§ Orbital elements

Epoch: 2026-05-24T23:09:15.486048Z

Period
94.01 min
Inclination
53.1600°
Eccentricity
0.0001153
Mean motion
15.31717847 rev/d
Perigee alt
469.9 km
Apogee alt
471.5 km
Semi-major
6,848.8 km
B*
9.5130e-5
RAAN
338.3972°
Arg perigee
105.0357°
Mean anomaly
255.0772°
Rev number
27,911

§ Raw data

STARLINK-25921 48408U 21038BH  26144.96476257  .00002590  00000+0  95130-4 0  99982 48408  53.1600 338.3972 0001153 105.0357 255.0772 15.31717847279119

JSON: /api/v1/satellites/48408 · /tle

For live sub-satellite position, see the globe view (requires WebGL).

§ Visibility from observer

Set your observer location to see the next 7 days of passes ≥ 10°. The values pass through the URL so the page stays shareable.

No JS? Fill the form by hand. The geolocation button needs JavaScript.